• In Romania
  • List of Countries
  • For 7 days
  • Water Temperature
  • Satellite Maps
  • Weather Map
  • Weather Widgets
  • user-avatar
    Login

    Hourly Weather Kultura

    Today, 22 June, Friday

    Time Temperature Precipitation Wind Pressure Humidity
    00:00 +14°C° 0 mm 4 mps 752 mmHg 76%
    01:00 +13°C° 0 mm 4 mps 753 mmHg 77%
    02:00 +13°C° 0 mm 4 mps 753 mmHg 77%
    03:00 +13°C° 0 mm 4 mps 753 mmHg 78%
    04:00 +13°C° 0 mm 5 mps 754 mmHg 76%
    05:00 +14°C° 0 mm 5 mps 754 mmHg 74%
    06:00 +15°C° 0 mm 5 mps 754 mmHg 72%
    07:00 +17°C° 0 mm 6 mps 754 mmHg 67%
    08:00 +19°C° 0 mm 6 mps 754 mmHg 63%
    09:00 +21°C° 0 mm 6 mps 754 mmHg 58%
    10:00 +21°C° 0 mm 6 mps 755 mmHg 56%
    11:00 +22°C° 0 mm 6 mps 755 mmHg 53%
    12:00 +23°C° 0 mm 7 mps 755 mmHg 51%
    13:00 +23°C° 0 mm 6 mps 755 mmHg 51%
    14:00 +24°C° 0 mm 6 mps 755 mmHg 51%
    15:00 +24°C° 0 mm 6 mps 755 mmHg 51%
    16:00 +23°C° 0 mm 5 mps 755 mmHg 56%
    17:00 +23°C° 0 mm 4 mps 755 mmHg 61%
    18:00 +22°C° 0 mm 3 mps 756 mmHg 65%
    19:00 +20°C° 0 mm 3 mps 756 mmHg 69%
    20:00 +18°C° 0 mm 2 mps 756 mmHg 72%
    21:00 +16°C° 0 mm 2 mps 756 mmHg 76%
    22:00 +16°C° 0 mm 2 mps 756 mmHg 77%
    23:00 +16°C° 0 mm 2 mps 757 mmHg 78%

    Tomorrow, 23 June, Saturday

    Time Temperature Precipitation Wind Pressure Humidity
    00:00 +15°C° 0 mm 2 mps 757 mmHg 79%
    01:00 +15°C° 0 mm 2 mps 757 mmHg 81%
    02:00 +15°C° 0 mm 2 mps 757 mmHg 83%
    03:00 +14°C° 0 mm 2 mps 757 mmHg 85%
    04:00 +16°C° 0 mm 2 mps 757 mmHg 83%
    05:00 +17°C° 0 mm 2 mps 757 mmHg 80%
    06:00 +18°C° 0 mm 2 mps 757 mmHg 77%
    07:00 +20°C° 0 mm 2 mps 757 mmHg 72%
    08:00 +23°C° 0 mm 2 mps 757 mmHg 66%
    09:00 +25°C° 0 mm 2 mps 757 mmHg 60%
    10:00 +26°C° 0 mm 3 mps 757 mmHg 57%
    11:00 +27°C° 0 mm 3 mps 757 mmHg 54%
    12:00 +28°C° 0 mm 3 mps 757 mmHg 51%
    13:00 +28°C° 0 mm 3 mps 757 mmHg 52%
    14:00 +29°C° 0 mm 3 mps 757 mmHg 52%
    15:00 +29°C° 0 mm 3 mps 757 mmHg 53%
    16:00 +28°C° 0 mm 3 mps 757 mmHg 57%
    17:00 +28°C° 0 mm 2 mps 756 mmHg 62%
    18:00 +28°C° 0 mm 2 mps 756 mmHg 66%
    19:00 +26°C° 0 mm 2 mps 756 mmHg 71%
    20:00 +24°C° 0 mm 1 mps 756 mmHg 77%
    21:00 +22°C° 0 mm 1 mps 757 mmHg 82%
    22:00 +22°C° 0 mm 1 mps 757 mmHg 83%
    23:00 +22°C° 0 mm 1 mps 757 mmHg 84%

    Day after tomorrow, 24 June, Sunday

    Time Temperature Precipitation Wind Pressure Humidity
    00:00 +21°C° 0 mm 1 mps 757 mmHg 84%
    01:00 +21°C° 0 mm 1 mps 757 mmHg 85%
    02:00 +20°C° 0 mm 1 mps 757 mmHg 86%
    03:00 +20°C° 0 mm 1 mps 757 mmHg 87%
    04:00 +21°C° 0 mm 1 mps 757 mmHg 83%
    05:00 +23°C° 0 mm 1 mps 757 mmHg 79%
    06:00 +24°C° 0 mm 1 mps 757 mmHg 75%
    07:00 +25°C° 0 mm 1 mps 758 mmHg 71%
    08:00 +27°C° 0 mm 1 mps 758 mmHg 67%
    09:00 +28°C° 0 mm 1 mps 758 mmHg 63%
    10:00 +29°C° 0 mm 1 mps 758 mmHg 60%
    11:00 +30°C° 0 mm 2 mps 758 mmHg 58%
    12:00 +31°C° 0 mm 2 mps 757 mmHg 55%
    13:00 +31°C° 0.4 mm 2 mps 757 mmHg 55%
    14:00 +31°C° 0.4 mm 2 mps 758 mmHg 55%
    15:00 +31°C° 0.4 mm 1 mps 758 mmHg 54%
    16:00 +31°C° 0.8 mm 1 mps 758 mmHg 60%
    17:00 +30°C° 0.8 mm 1 mps 758 mmHg 65%
    18:00 +29°C° 0.8 mm 1 mps 758 mmHg 70%
    19:00 +28°C° 0 mm 1 mps 758 mmHg 74%
    20:00 +26°C° 0 mm 1 mps 758 mmHg 79%
    21:00 +25°C° 0 mm 1 mps 759 mmHg 83%
    22:00 +22°C° 0 mm 0 mps 759 mmHg 84%
    23:00 +22°C° 0 mm 0 mps 759 mmHg 86%

    25 June, Monday

    Time Temperature Precipitation Wind Pressure Humidity
    00:00 +21°C° 0 mm 0 mps 759 mmHg 87%
    01:00 +21°C° 0 mm 0 mps 759 mmHg 87%
    02:00 +21°C° 0 mm 0 mps 759 mmHg 88%
    03:00 +20°C° 0 mm 0 mps 759 mmHg 89%
    04:00 +22°C° 0 mm 0 mps 760 mmHg 86%
    05:00 +23°C° 0 mm 0 mps 760 mmHg 83%
    06:00 +24°C° 0 mm 0 mps 760 mmHg 80%
    07:00 +25°C° 0.1 mm 0 mps 760 mmHg 75%
    08:00 +27°C° 0.1 mm 0 mps 760 mmHg 70%
    09:00 +28°C° 0.1 mm 0 mps 760 mmHg 65%
    10:00 +31°C° 0.1 mm 1 mps 760 mmHg 61%
    11:00 +31°C° 0.1 mm 1 mps 760 mmHg 58%
    12:00 +32°C° 0.1 mm 1 mps 759 mmHg 54%
    13:00 +32°C° 0.2 mm 2 mps 759 mmHg 54%
    14:00 +32°C° 0.2 mm 2 mps 759 mmHg 54%
    15:00 +32°C° 0.2 mm 2 mps 759 mmHg 55%
    16:00 +32°C° 0.4 mm 2 mps 759 mmHg 59%
    17:00 +31°C° 0.4 mm 2 mps 759 mmHg 64%
    18:00 +30°C° 0.4 mm 2 mps 759 mmHg 68%
    19:00 +29°C° 0 mm 2 mps 759 mmHg 72%
    20:00 +27°C° 0 mm 1 mps 759 mmHg 76%
    21:00 +25°C° 0 mm 1 mps 760 mmHg 80%
    22:00 +25°C° 0 mm 1 mps 760 mmHg 83%
    23:00 +24°C° 0 mm 1 mps 760 mmHg 85%

    26 June, Tuesday

    Time Temperature Precipitation Wind Pressure Humidity
    00:00 +24°C° 0 mm 1 mps 760 mmHg 88%
    01:00 +23°C° 0 mm 1 mps 760 mmHg 89%
    02:00 +23°C° 0 mm 1 mps 760 mmHg 90%
    03:00 +23°C° 0 mm 2 mps 760 mmHg 91%
    04:00 +24°C° 0 mm 2 mps 760 mmHg 88%
    05:00 +25°C° 0 mm 3 mps 760 mmHg 85%
    06:00 +25°C° 0 mm 3 mps 760 mmHg 83%
    07:00 +27°C° 0.2 mm 3 mps 760 mmHg 77%
    08:00 +28°C° 0.2 mm 3 mps 760 mmHg 72%
    09:00 +30°C° 0.2 mm 4 mps 760 mmHg 66%
    10:00 +30°C° 1 mm 4 mps 760 mmHg 66%
    11:00 +30°C° 1 mm 5 mps 760 mmHg 66%
    12:00 +30°C° 1 mm 5 mps 760 mmHg 66%
    13:00 +30°C° 0.2 mm 5 mps 760 mmHg 65%
    14:00 +30°C° 0.2 mm 5 mps 760 mmHg 64%
    15:00 +32°C° 0.2 mm 4 mps 760 mmHg 63%
    16:00 +30°C° 0.1 mm 4 mps 760 mmHg 67%
    17:00 +29°C° 0.1 mm 4 mps 760 mmHg 71%
    18:00 +29°C° 0.1 mm 4 mps 760 mmHg 75%
    19:00 +27°C° 0 mm 3 mps 760 mmHg 79%
    20:00 +26°C° 0 mm 3 mps 760 mmHg 84%
    21:00 +24°C° 0 mm 3 mps 761 mmHg 88%
    22:00 +24°C° 0 mm 3 mps 760 mmHg 89%
    23:00 +22°C° 0 mm 3 mps 760 mmHg 91%

    27 June, Wednesday

    Time Temperature Precipitation Wind Pressure Humidity
    00:00 +22°C° 0 mm 3 mps 760 mmHg 92%
    01:00 +21°C° 0 mm 3 mps 760 mmHg 93%
    02:00 +21°C° 0 mm 2 mps 761 mmHg 93%
    03:00 +21°C° 0 mm 2 mps 761 mmHg 94%
    04:00 +22°C° 0 mm 3 mps 761 mmHg 91%
    05:00 +24°C° 0 mm 3 mps 761 mmHg 88%
    06:00 +24°C° 0 mm 3 mps 761 mmHg 84%
    07:00 +26°C° 0 mm 3 mps 761 mmHg 79%
    08:00 +27°C° 0 mm 3 mps 761 mmHg 74%
    09:00 +29°C° 0 mm 4 mps 761 mmHg 69%
    10:00 +30°C° 0 mm 4 mps 760 mmHg 64%
    11:00 +32°C° 0 mm 4 mps 760 mmHg 60%
    12:00 +33°C° 0 mm 4 mps 760 mmHg 56%
    13:00 +33°C° 0 mm 4 mps 760 mmHg 55%
    14:00 +33°C° 0 mm 4 mps 760 mmHg 55%
    15:00 +33°C° 0 mm 5 mps 760 mmHg 54%
    16:00 +32°C° 0.1 mm 4 mps 760 mmHg 59%
    17:00 +32°C° 0.1 mm 4 mps 760 mmHg 64%
    18:00 +30°C° 0.1 mm 4 mps 759 mmHg 69%
    19:00 +28°C° 0 mm 3 mps 760 mmHg 74%
    20:00 +27°C° 0 mm 3 mps 760 mmHg 79%
    21:00 +25°C° 0 mm 3 mps 760 mmHg 84%
    22:00 +24°C° 0 mm 3 mps 760 mmHg 86%
    23:00 +22°C° 0 mm 3 mps 760 mmHg 88%
    Show more